TimeCDT,TemperatureF,Dew PointF,Humidity,Sea Level PressureIn,VisibilityMPH,Wind Direction,Wind SpeedMPH,Gust SpeedMPH,PrecipitationIn,Events,Conditions,WindDirDegrees,DateUTC
12:52 AM,69.1,52.0,54,29.96,10.0,NNW,4.6,-,N/A,,Partly Cloudy,330,2013-08-03 05:52:00
1:52 AM,66.0,52.0,60,29.97,10.0,North,6.9,-,N/A,,Partly Cloudy,350,2013-08-03 06:52:00
2:52 AM,64.0,52.0,65,29.98,10.0,North,8.1,-,N/A,,Partly Cloudy,360,2013-08-03 07:52:00
3:52 AM,63.0,52.0,67,29.99,10.0,NW,5.8,-,N/A,,Clear,320,2013-08-03 08:52:00
4:52 AM,62.1,52.0,70,30.00,10.0,NNW,5.8,-,N/A,,Partly Cloudy,330,2013-08-03 09:52:00
5:52 AM,61.0,52.0,72,30.01,10.0,NNW,4.6,-,N/A,,Partly Cloudy,330,2013-08-03 10:52:00
6:52 AM,63.0,52.0,67,30.02,10.0,NW,6.9,-,N/A,,Partly Cloudy,320,2013-08-03 11:52:00
7:52 AM,66.9,53.1,61,30.04,10.0,NNW,3.5,-,N/A,,Scattered Clouds,330,2013-08-03 12:52:00
8:52 AM,71.1,51.1,49,30.04,10.0,NNE,8.1,-,N/A,,Partly Cloudy,30,2013-08-03 13:52:00
9:52 AM,73.0,50.0,44,30.05,10.0,NE,8.1,-,N/A,,Partly Cloudy,50,2013-08-03 14:52:00
10:52 AM,73.0,52.0,48,30.06,10.0,ENE,9.2,-,N/A,,Scattered Clouds,70,2013-08-03 15:52:00
11:52 AM,75.0,52.0,44,30.07,10.0,NE,5.8,-,N/A,,Scattered Clouds,50,2013-08-03 16:52:00
12:52 PM,75.0,54.0,48,30.06,10.0,Variable,4.6,-,N/A,,Mostly Cloudy,0,2013-08-03 17:52:00
1:52 PM,72.0,57.0,59,30.08,10.0,NE,8.1,-,N/A,,Mostly Cloudy,40,2013-08-03 18:52:00
2:52 PM,72.0,59.0,64,30.08,10.0,NE,9.2,-,N/A,,Mostly Cloudy,50,2013-08-03 19:52:00
3:52 PM,72.0,59.0,64,30.08,10.0,East,6.9,-,N/A,,Mostly Cloudy,80,2013-08-03 20:52:00
4:52 PM,71.1,57.0,61,30.07,10.0,East,9.2,-,N/A,,Mostly Cloudy,90,2013-08-03 21:52:00
5:52 PM,70.0,55.9,61,30.07,10.0,ESE,8.1,-,N/A,,Mostly Cloudy,120,2013-08-03 22:52:00
6:52 PM,69.1,55.9,63,30.08,10.0,East,5.8,-,N/A,,Mostly Cloudy,100,2013-08-03 23:52:00
7:52 PM,66.9,55.9,68,30.08,10.0,SSE,5.8,-,N/A,,Scattered Clouds,160,2013-08-04 00:52:00
8:52 PM,66.0,55.9,70,30.09,10.0,SSW,3.5,-,N/A,,Scattered Clouds,200,2013-08-04 01:52:00
9:52 PM,66.0,55.9,70,30.10,10.0,SW,3.5,-,N/A,,Scattered Clouds,230,2013-08-04 02:52:00
10:52 PM,66.0,55.9,70,30.11,10.0,West,5.8,-,N/A,,Partly Cloudy,260,2013-08-04 03:52:00
11:52 PM,64.9,55.9,73,30.11,10.0,West,3.5,-,N/A,,Clear,280,2013-08-04 04:52:00